Location: Mahannah Oil Field
(37.4664°N, 96.6003°W)
Time: 18:09:11
(UTC+00:00)

Vanguard 2 - Pass Details

Date: 19 June 2021
Orbit: 552 x 2937 km, 32.9° (Epoch: 26 July)

Event Time Altitude Azimuth Distance (km) Brightness Sun altitude
Rises 03:37:53 0° 272° (W) 4,937 12.3 -17.2°
Reaches altitude 10° 03:41:53 10° 268° (W) 3,541 11.4 -17.7°
Maximum altitude 03:49:52 51° 196° (SSW) 1,206 8.2 -18.7°
Enters shadow 03:52:01 34° 142° (SE) 1,387 8.3 -18.9°
